| time (UTC) | temp F | wind direction | speed knots | gust knots | rain 1hr in | rain 24hr in | rain mn in | humidity % | barometer mb |
| 20260507010005 | 74 | 194 | 3.5 | 3.5 | 0.00 | 0.00 | 0.00 | 24 | 1019.3 |
| 20260507005503 | 74 | 147 | 1.7 | 1.7 | 0.00 | 0.00 | 0.00 | 23 | 1019.5 |
| 20260507004959 | 75 | 170 | 2.6 | 3.5 | 0.00 | 0.00 | 0.00 | 24 | 1019.3 |
| 20260507004455 | 74 | 151 | 0.9 | 0.9 | 0.00 | 0.00 | 0.00 | 23 | 1019.7 |
| 20260507003954 | 75 | 98 | 5.2 | 6.1 | 0.00 | 0.00 | 0.00 | 25 | 1019.5 |
| 20260507003448 | 74 | 75 | 0.9 | 2.6 | 0.00 | 0.00 | 0.00 | 25 | 1019.5 |
| 20260507002944 | 75 | 85 | 1.7 | 2.6 | 0.00 | 0.00 | 0.00 | 24 | 1019.5 |
| 20260507002441 | 74 | 96 | 3.5 | 3.5 | 0.00 | 0.00 | 0.00 | 24 | 1019.4 |
| 20260507001937 | 74 | 96 | 2.6 | 3.5 | 0.00 | 0.00 | 0.00 | 24 | 1019.7 |
| 20260507001434 | 74 | 170 | 1.7 | 1.7 | 0.00 | 0.00 | 0.00 | 23 | 1019.4 |
| 20260507000932 | 74 | 105 | 0.0 | 0.9 | 0.00 | 0.00 | 0.00 | 24 | 1019.4 |
| 20260507000427 | 75 | 52 | 5.2 | 6.1 | 0.00 | 0.00 | 0.00 | 24 | 1019.5 |
| 20260506235923 | 75 | 85 | 1.7 | 3.5 | 0.00 | 0.00 | 0.00 | 24 | 1019.3 |
| 20260506235420 | 75 | 106 | 1.7 | 2.6 | 0.00 | 0.00 | 0.00 | 24 | 1019.3 |
| 20260506234915 | 75 | 93 | 1.7 | 1.7 | 0.00 | 0.00 | 0.00 | 22 | 1019.3 |
| 20260506234414 | 75 | 43 | 2.6 | 3.5 | 0.00 | 0.00 | 0.00 | 22 | 1019.4 |
| 20260506233911 | 75 | 116 | 1.7 | 2.6 | 0.00 | 0.00 | 0.00 | 25 | 1019.7 |
| 20260506233407 | 74 | 84 | 4.3 | 6.1 | 0.00 | 0.00 | 0.00 | 27 | 1019.5 |
| 20260506232904 | 75 | 95 | 3.5 | 5.2 | 0.00 | 0.00 | 0.00 | 26 | 1019.4 |
| 20260506232400 | 74 | 155 | 1.7 | 1.7 | 0.00 | 0.00 | 0.00 | 26 | 1019.7 |
| 20260506231856 | 74 | 64 | 1.7 | 2.6 | 0.00 | 0.00 | 0.00 | 25 | 1019.7 |
| 20260506231354 | 75 | 69 | 1.7 | 2.6 | 0.00 | 0.00 | 0.00 | 27 | 1019.8 |
| 20260506230851 | 75 | 87 | 2.6 | 2.6 | 0.00 | 0.00 | 0.00 | 25 | 1019.8 |
| 20260506230348 | 75 | 8 | 5.2 | 6.1 | 0.00 | 0.00 | 0.00 | 25 | 1019.9 |
| 20260506225844 | 75 | 329 | 1.7 | 1.7 | 0.00 | 0.00 | 0.00 | 26 | 1020.1 |
| 20260506225341 | 75 | 128 | 0.0 | 0.9 | 0.00 | 0.00 | 0.00 | 26 | 1020.0 |
| 20260506224838 | 74 | 152 | 3.5 | 3.5 | 0.00 | 0.00 | 0.00 | 28 | 1020.0 |
| 20260506224336 | 74 | 114 | 3.5 | 3.5 | 0.00 | 0.00 | 0.00 | 24 | 1020.1 |
| 20260506223832 | 75 | 24 | 5.2 | 7.0 | 0.00 | 0.00 | 0.00 | 25 | 1020.2 |
| 20260506223327 | 74 | 70 | 1.7 | 2.6 | 0.00 | 0.00 | 0.00 | 25 | 1020.1 |
| 20260506222825 | 74 | 96 | 5.2 | 7.0 | 0.00 | 0.00 | 0.00 | 27 | 1020.1 |
| 20260506222320 | 74 | 106 | 9.6 | 9.6 | 0.00 | 0.00 | 0.00 | 28 | 1020.3 |
| 20260506221818 | 74 | 85 | 5.2 | 7.0 | 0.00 | 0.00 | 0.00 | 27 | 1020.2 |
| 20260506221316 | 73 | 80 | 2.6 | 3.5 | 0.00 | 0.00 | 0.00 | 26 | 1020.2 |
| 20260506220813 | 73 | 82 | 5.2 | 6.1 | 0.00 | 0.00 | 0.00 | 28 | 1020.7 |
| 20260506220314 | 73 | 83 | 3.5 | 6.1 | 0.00 | 0.00 | 0.00 | 26 | 1020.6 |
| 20260506215810 | 73 | 62 | 7.0 | 9.6 | 0.00 | 0.00 | 0.00 | 31 | 1020.5 |
| 20260506215307 | 73 | 89 | 3.5 | 5.2 | 0.00 | 0.00 | 0.00 | 29 | 1020.5 |
| 20260506214803 | 72 | 109 | 3.5 | 3.5 | 0.00 | 0.00 | 0.00 | 28 | 1020.6 |
| 20260506214300 | 73 | 96 | 6.1 | 7.0 | 0.00 | 0.00 | 0.00 | 27 | 1021.0 |
| 20260506213758 | 72 | 106 | 0.9 | 1.7 | 0.00 | 0.00 | 0.00 | 28 | 1020.9 |
| 20260506213254 | 73 | 81 | 3.5 | 7.0 | 0.00 | 0.00 | 0.00 | 30 | 1020.9 |
| 20260506212752 | 73 | 93 | 6.1 | 7.8 | 0.00 | 0.00 | 0.00 | 31 | 1021.0 |
| 20260506212247 | 73 | 46 | 1.7 | 2.6 | 0.00 | 0.00 | 0.00 | 29 | 1021.2 |
| 20260506211743 | 74 | 65 | 3.5 | 3.5 | 0.00 | 0.00 | 0.00 | 31 | 1020.9 |
| 20260506211239 | 73 | 346 | 6.1 | 7.0 | 0.00 | 0.00 | 0.00 | 27 | 1020.9 |
| 20260506210737 | 72 | 119 | 2.6 | 2.6 | 0.00 | 0.00 | 0.00 | 28 | 1020.9 |
| 20260506210233 | 72 | 81 | 0.9 | 1.7 | 0.00 | 0.00 | 0.00 | 30 | 1021.2 |
| 20260506205730 | 72 | 44 | 3.5 | 5.2 | 0.00 | 0.00 | 0.00 | 32 | 1021.2 |
| 20260506205226 | 72 | 296 | 2.6 | 2.6 | 0.00 | 0.00 | 0.00 | 29 | 1021.0 |
| 20260506204717 | 72 | 62 | 4.3 | 5.2 | 0.00 | 0.00 | 0.00 | 33 | 1021.2 |
| 20260506204214 | 72 | 15 | 2.6 | 3.5 | 0.00 | 0.00 | 0.00 | 32 | 1020.9 |
| 20260506203712 | 71 | 211 | 0.9 | 0.9 | 0.00 | 0.00 | 0.00 | 32 | 1021.2 |
| 20260506203210 | 71 | 298 | 2.6 | 3.5 | 0.00 | 0.00 | 0.00 | 33 | 1021.0 |
| 20260506202707 | 71 | 67 | 0.9 | 1.7 | 0.00 | 0.00 | 0.00 | 34 | 1021.4 |
| 20260506202203 | 70 | 327 | 5.2 | 7.8 | 0.00 | 0.00 | 0.00 | 35 | 1021.2 |
| 20260506201700 | 70 | 94 | 5.2 | 6.1 | 0.00 | 0.00 | 0.00 | 38 | 1021.2 |
| 20260506201156 | 70 | 102 | 5.2 | 7.0 | 0.00 | 0.00 | 0.00 | 39 | 1021.3 |
| 20260506200653 | 70 | 78 | 6.1 | 7.8 | 0.00 | 0.00 | 0.00 | 39 | 1021.4 |
| 20260506200150 | 70 | 119 | 5.2 | 7.8 | 0.00 | 0.00 | 0.00 | 38 | 1021.4 |
| 20260506195647 | 70 | 57 | 1.7 | 3.5 | 0.00 | 0.00 | 0.00 | 42 | 1021.4 |
| 20260506195143 | 70 | 104 | 5.2 | 6.1 | 0.00 | 0.00 | 0.00 | 40 | 1021.4 |
| 20260506194640 | 69 | 123 | 0.0 | 0.9 | 0.00 | 0.00 | 0.00 | 40 | 1021.3 |
| 20260506194136 | 70 | 72 | 1.7 | 2.6 | 0.00 | 0.00 | 0.00 | 38 | 1021.5 |
| 20260506193634 | 70 | 108 | 0.9 | 1.7 | 0.00 | 0.00 | 0.00 | 40 | 1021.6 |
| 20260506193131 | 70 | 126 | 2.6 | 3.5 | 0.00 | 0.00 | 0.00 | 37 | 1021.7 |
| 20260506192628 | 69 | 52 | 0.9 | 1.7 | 0.00 | 0.00 | 0.00 | 37 | 1021.8 |
| 20260506192124 | 69 | 261 | 3.5 | 3.5 | 0.00 | 0.00 | 0.00 | 38 | 1021.7 |
| 20260506191621 | 68 | 130 | 0.9 | 1.7 | 0.00 | 0.00 | 0.00 | 41 | 1022.0 |
| 20260506191117 | 69 | 223 | 0.9 | 1.7 | 0.00 | 0.00 | 0.00 | 40 | 1022.0 |
| 20260506190615 | 69 | 7 | 5.2 | 6.1 | 0.00 | 0.00 | 0.00 | 40 | 1021.8 |
| 20260506190111 | 69 | 0 | 7.8 | 8.7 | 0.00 | 0.00 | 0.00 | 44 | 1022.0 |
| 20260506185608 | 68 | 128 | 1.7 | 1.7 | 0.00 | 0.00 | 0.00 | 44 | 1022.0 |
| 20260506185104 | 67 | 268 | 3.5 | 3.5 | 0.00 | 0.00 | 0.00 | 42 | 1022.1 |
| 20260506184602 | 68 | 350 | 8.7 | 9.6 | 0.00 | 0.00 | 0.00 | 42 | 1022.0 |
| 20260506184059 | 68 | 327 | 5.2 | 7.0 | 0.00 | 0.00 | 0.00 | 42 | 1021.8 |
| 20260506183555 | 68 | 351 | 4.3 | 5.2 | 0.00 | 0.00 | 0.00 | 41 | 1022.1 |
| 20260506183051 | 67 | 257 | 2.6 | 2.6 | 0.00 | 0.00 | 0.00 | 41 | 1022.1 |
| 20260506182549 | 67 | 286 | 2.6 | 2.6 | 0.00 | 0.00 | 0.00 | 44 | 1022.2 |
| 20260506182046 | 67 | 18 | 3.5 | 3.5 | 0.00 | 0.00 | 0.00 | 43 | 1022.0 |
| 20260506181544 | 67 | 52 | 0.9 | 2.6 | 0.00 | 0.00 | 0.00 | 46 | 1022.1 |
| 20260506181041 | 66 | 98 | 1.7 | 2.6 | 0.00 | 0.00 | 0.00 | 45 | 1022.0 |
| 20260506180537 | 66 | 53 | 3.5 | 6.1 | 0.00 | 0.00 | 0.00 | 44 | 1022.1 |
| 20260506180034 | 66 | 120 | 2.6 | 3.5 | 0.00 | 0.00 | 0.00 | 44 | 1021.8 |
| 20260506175531 | 66 | 114 | 1.7 | 3.5 | 0.00 | 0.00 | 0.00 | 44 | 1022.1 |
| 20260506175027 | 66 | 103 | 2.6 | 2.6 | 0.00 | 0.00 | 0.00 | 43 | 1022.0 |
| 20260506174526 | 66 | 145 | 0.0 | 0.9 | 0.00 | 0.00 | 0.00 | 48 | 1022.1 |
| 20260506174021 | 66 | 307 | 0.0 | 0.0 | 0.00 | 0.00 | 0.00 | 40 | 1022.0 |
| 20260506173519 | 65 | 214 | 0.9 | 0.9 | 0.00 | 0.00 | 0.00 | 46 | 1022.1 |
| 20260506173016 | 65 | 235 | 1.7 | 1.7 | 0.00 | 0.00 | 0.00 | 43 | 1021.8 |
| 20260506172514 | 64 | 308 | 2.6 | 3.5 | 0.00 | 0.00 | 0.00 | 50 | 1022.1 |
| 20260506172009 | 63 | 202 | 0.9 | 0.9 | 0.00 | 0.00 | 0.00 | 56 | 1022.1 |
| 20260506171507 | 63 | 264 | 3.5 | 3.5 | 0.00 | 0.00 | 0.00 | 56 | 1021.8 |
| 20260506171004 | 63 | 232 | 1.7 | 2.6 | 0.00 | 0.00 | 0.00 | 56 | 1021.8 |
| 20260506170502 | 64 | 285 | 3.5 | 3.5 | 0.00 | 0.00 | 0.00 | 54 | 1021.7 |
| 20260506165959 | 62 | 156 | 0.0 | 0.0 | 0.00 | 0.00 | 0.00 | 54 | 1021.8 |
| 20260506165458 | 62 | 217 | 0.0 | 0.0 | 0.00 | 0.00 | 0.00 | 56 | 1021.7 |
| 20260506164953 | 63 | 256 | 2.6 | 2.6 | 0.00 | 0.00 | 0.00 | 56 | 1022.0 |
| 20260506164450 | 62 | 200 | 0.9 | 1.7 | 0.00 | 0.00 | 0.00 | 62 | 1021.8 |
| 20260506163948 | 62 | 205 | 0.9 | 1.7 | 0.00 | 0.00 | 0.00 | 56 | 1021.7 |
| 20260506163443 | 61 | 219 | 0.0 | 0.0 | 0.00 | 0.00 | 0.00 | 58 | 1021.7 |
| 20260506162938 | 60 | 180 | 0.9 | 0.9 | 0.00 | 0.00 | 0.00 | 59 | 1021.6 |
| 20260506162436 | 61 | 245 | 2.6 | 2.6 | 0.00 | 0.00 | 0.00 | 59 | 1021.6 |
| 20260506161933 | 61 | 17 | 0.9 | 1.7 | 0.00 | 0.00 | 0.00 | 58 | 1021.5 |
| 20260506161431 | 59 | 133 | 0.0 | 0.0 | 0.00 | 0.00 | 0.00 | 62 | 1021.4 |
| 20260506160928 | 58 | 250 | 1.7 | 1.7 | 0.00 | 0.00 | 0.00 | 63 | 1021.4 |
| 20260506160426 | 57 | 353 | 0.0 | 0.0 | 0.00 | 0.00 | 0.00 | 67 | 1021.5 |
| 20260506155923 | 57 | 319 | 2.6 | 2.6 | 0.00 | 0.00 | 0.00 | 64 | 1021.4 |
| 20260506155421 | 56 | 0 | 1.7 | 1.7 | 0.00 | 0.00 | 0.00 | 68 | 1021.4 |
| 20260506153542 | 55 | 289 | 1.7 | 2.6 | 0.00 | 0.00 | 0.00 | 63 | 1021.3 |
| 20260506153039 | 55 | 330 | 1.7 | 1.7 | 0.00 | 0.00 | 0.00 | 69 | 1021.0 |
| 20260506152536 | 55 | 357 | 1.7 | 1.7 | 0.00 | 0.00 | 0.00 | 68 | 1021.2 |
| 20260506152035 | 55 | 208 | 0.9 | 0.9 | 0.00 | 0.00 | 0.00 | 70 | 1021.3 |
| 20260506151532 | 55 | 128 | 0.0 | 0.0 | 0.00 | 0.00 | 0.00 | 69 | 1021.3 |
| 20260506151029 | 54 | 110 | 0.9 | 0.9 | 0.00 | 0.00 | 0.00 | 72 | 1021.2 |
| 20260506150526 | 53 | 134 | 0.0 | 0.0 | 0.00 | 0.00 | 0.00 | 76 | 1021.2 |
| 20260506150023 | 52 | 73 | 0.9 | 0.9 | 0.00 | 0.00 | 0.00 | 75 | 1021.0 |
| 20260506145519 | 51 | 81 | 0.9 | 0.9 | 0.00 | 0.00 | 0.00 | 77 | 1021.3 |
| 20260506145017 | 49 | 76 | 0.0 | 0.9 | 0.00 | 0.00 | 0.00 | 83 | 1021.3 |
| 20260506144513 | 48 | 78 | 0.9 | 1.7 | 0.00 | 0.00 | 0.00 | 86 | 1021.0 |
| 20260506144011 | 48 | 96 | 0.9 | 0.9 | 0.00 | 0.00 | 0.00 | 86 | 1021.2 |
| 20260506143508 | 48 | 83 | 0.0 | 0.9 | 0.00 | 0.00 | 0.00 | 86 | 1021.2 |
| 20260506143007 | 48 | 92 | 1.7 | 1.7 | 0.00 | 0.00 | 0.00 | 86 | 1021.0 |
| 20260506142504 | 48 | 101 | 1.7 | 1.7 | 0.00 | 0.00 | 0.00 | 86 | 1020.8 |
| 20260506142002 | 48 | 121 | 1.7 | 2.6 | 0.00 | 0.00 | 0.00 | 84 | 1020.8 |
| 20260506141459 | 51 | 133 | 1.7 | 1.7 | 0.00 | 0.00 | 0.00 | 77 | 1020.7 |
| 20260506140958 | 50 | 151 | 0.0 | 0.0 | 0.00 | 0.00 | 0.00 | 80 | 1020.6 |
| 20260506140454 | 49 | 150 | 0.0 | 0.0 | 0.00 | 0.00 | 0.00 | 85 | 1020.5 |
| 20260506135951 | 47 | 151 | 0.9 | 0.9 | 0.00 | 0.00 | 0.00 | 85 | 1020.8 |
| 20260506135449 | 47 | 152 | 0.9 | 0.9 | 0.00 | 0.00 | 0.00 | 87 | 1020.3 |
| 20260506134944 | 45 | 239 | 0.0 | 0.0 | 0.00 | 0.00 | 0.00 | 91 | 1020.7 |
| 20260506134440 | 44 | 239 | 0.0 | 0.0 | 0.00 | 0.00 | 0.00 | 92 | 1020.5 |
| 20260506133937 | 43 | 240 | 0.9 | 0.9 | 0.00 | 0.00 | 0.00 | 92 | 1020.3 |
| 20260506133435 | 42 | 256 | 1.7 | 1.7 | 0.00 | 0.00 | 0.00 | 93 | 1020.2 |
| 20260506132931 | 41 | 251 | 1.7 | 1.7 | 0.00 | 0.00 | 0.00 | 92 | 1020.1 |
| 20260506132428 | 41 | 248 | 1.7 | 1.7 | 0.00 | 0.00 | 0.00 | 92 | 1020.2 |
| 20260506131926 | 41 | 184 | 0.0 | 0.0 | 0.00 | 0.00 | 0.00 | 93 | 1020.0 |
| 20260506131422 | 41 | 182 | 0.0 | 0.0 | 0.00 | 0.00 | 0.00 | 92 | 1019.8 |
| 20260506130919 | 41 | 183 | 0.0 | 0.0 | 0.00 | 0.00 | 0.00 | 92 | 1019.7 |
| 20260506130416 | 41 | 183 | 0.0 | 0.0 | 0.00 | 0.00 | 0.00 | 91 | 1019.8 |
| 20260506125914 | 41 | 206 | 0.0 | 0.0 | 0.00 | 0.00 | 0.00 | 92 | 1019.7 |
| 20260506125412 | 41 | 238 | 0.9 | 0.9 | 0.00 | 0.00 | 0.00 | 92 | 1019.3 |
| 20260506124910 | 41 | 239 | 0.9 | 0.9 | 0.00 | 0.00 | 0.00 | 92 | 1019.3 |
| 20260506124407 | 41 | 240 | 1.7 | 1.7 | 0.00 | 0.00 | 0.00 | 92 | 1019.2 |
| 20260506123905 | 41 | 246 | 1.7 | 1.7 | 0.00 | 0.00 | 0.00 | 92 | 1019.4 |
| 20260506123402 | 41 | 266 | 1.7 | 2.6 | 0.00 | 0.00 | 0.00 | 90 | 1019.1 |
| 20260506122859 | 42 | 261 | 2.6 | 2.6 | 0.00 | 0.00 | 0.00 | 86 | 1018.9 |
| 20260506122356 | 44 | 60 | 0.9 | 0.9 | 0.00 | 0.00 | 0.00 | 85 | 1019.1 |
| 20260506121855 | 44 | 57 | 0.9 | 1.7 | 0.00 | 0.00 | 0.00 | 85 | 1019.1 |
| 20260506121351 | 44 | 53 | 0.9 | 0.9 | 0.00 | 0.00 | 0.00 | 85 | 1019.0 |
| 20260506120848 | 43 | 77 | 0.9 | 0.9 | 0.00 | 0.00 | 0.00 | 87 | 1019.0 |
| 20260506120346 | 43 | 135 | 0.9 | 0.9 | 0.00 | 0.00 | 0.00 | 88 | 1018.9 |
| 20260506115843 | 43 | 136 | 0.0 | 0.0 | 0.00 | 0.00 | 0.00 | 89 | 1018.7 |
| 20260506115341 | 43 | 137 | 0.0 | 0.0 | 0.00 | 0.00 | 0.00 | 88 | 1019.0 |
| 20260506114839 | 44 | 169 | 0.0 | 0.0 | 0.00 | 0.00 | 0.00 | 88 | 1018.9 |
| 20260506114336 | 43 | 170 | 0.0 | 0.0 | 0.00 | 0.00 | 0.00 | 89 | 1018.4 |
| 20260506113835 | 44 | 169 | 0.0 | 0.0 | 0.00 | 0.00 | 0.00 | 88 | 1018.5 |
| 20260506113332 | 45 | 169 | 0.0 | 0.0 | 0.00 | 0.00 | 0.00 | 85 | 1018.6 |
| 20260506112829 | 47 | 170 | 0.0 | 0.0 | 0.00 | 0.00 | 0.00 | 82 | 1018.4 |
| 20260506112326 | 46 | 169 | 1.7 | 1.7 | 0.00 | 0.00 | 0.00 | 85 | 1018.3 |
| 20260506111823 | 46 | 198 | 0.9 | 0.9 | 0.00 | 0.00 | 0.00 | 87 | 1018.4 |
| 20260506111321 | 45 | 199 | 0.9 | 0.9 | 0.00 | 0.00 | 0.00 | 87 | 1018.3 |
| 20260506110819 | 44 | 198 | 0.0 | 0.0 | 0.00 | 0.00 | 0.00 | 89 | 1018.2 |
| 20260506110315 | 44 | 199 | 0.9 | 0.9 | 0.00 | 0.00 | 0.00 | 88 | 1018.4 |
| 20260506105812 | 45 | 198 | 0.0 | 0.0 | 0.00 | 0.00 | 0.00 | 88 | 1018.4 |
| 20260506105309 | 45 | 200 | 0.9 | 0.9 | 0.00 | 0.00 | 0.00 | 88 | 1018.3 |
| 20260506104806 | 45 | 154 | 1.7 | 1.7 | 0.00 | 0.00 | 0.00 | 89 | 1018.0 |
| 20260506104304 | 44 | 218 | 0.9 | 0.9 | 0.00 | 0.00 | 0.00 | 89 | 1018.2 |
| 20260506103801 | 44 | 248 | 1.7 | 1.7 | 0.00 | 0.00 | 0.00 | 88 | 1018.0 |
| 20260506103259 | 45 | 243 | 1.7 | 1.7 | 0.00 | 0.00 | 0.00 | 85 | 1017.7 |
| 20260506102756 | 46 | 258 | 1.7 | 1.7 | 0.00 | 0.00 | 0.00 | 84 | 1017.8 |
| 20260506102254 | 47 | 200 | 0.9 | 1.7 | 0.00 | 0.00 | 0.00 | 82 | 1017.9 |
| 20260506101751 | 48 | 199 | 0.0 | 0.0 | 0.00 | 0.00 | 0.00 | 80 | 1017.7 |
| 20260506101247 | 48 | 199 | 0.0 | 0.9 | 0.00 | 0.00 | 0.00 | 80 | 1017.7 |
| 20260506100745 | 48 | 198 | 0.9 | 0.9 | 0.00 | 0.00 | 0.00 | 81 | 1017.7 |
| 20260506100243 | 47 | 199 | 0.9 | 0.9 | 0.00 | 0.00 | 0.00 | 82 | 1017.6 |
| 20260506095741 | 48 | 264 | 1.7 | 2.6 | 0.00 | 0.00 | 0.00 | 80 | 1017.6 |
| 20260506095238 | 46 | 233 | 2.6 | 3.5 | 0.00 | 0.00 | 0.00 | 86 | 1017.5 |
| 20260506094734 | 46 | 232 | 2.6 | 2.6 | 0.00 | 0.00 | 0.00 | 85 | 1017.5 |
| 20260506094233 | 47 | 251 | 2.6 | 2.6 | 0.00 | 0.00 | 0.00 | 82 | 1017.5 |
| 20260506093731 | 47 | 276 | 3.5 | 3.5 | 0.00 | 0.00 | 0.00 | 82 | 1017.1 |
| 20260506093228 | 47 | 253 | 2.6 | 2.6 | 0.00 | 0.00 | 0.00 | 80 | 1017.1 |
| 20260506092726 | 49 | 275 | 2.6 | 2.6 | 0.00 | 0.00 | 0.00 | 75 | 1017.0 |
| 20260506092223 | 49 | 203 | 2.6 | 2.6 | 0.00 | 0.00 | 0.00 | 75 | 1017.1 |
| 20260506091721 | 49 | 188 | 0.9 | 1.7 | 0.00 | 0.00 | 0.00 | 76 | 1016.9 |
| 20260506091218 | 48 | 199 | 2.6 | 3.5 | 0.00 | 0.00 | 0.00 | 78 | 1017.5 |
| 20260506090716 | 47 | 194 | 1.7 | 1.7 | 0.00 | 0.00 | 0.00 | 80 | 1017.0 |
| 20260506090212 | 47 | 195 | 0.0 | 0.0 | 0.00 | 0.00 | 0.00 | 80 | 1017.1 |
| 20260506085709 | 48 | 196 | 0.0 | 0.0 | 0.00 | 0.00 | 0.00 | 79 | 1017.4 |
| 20260506085205 | 48 | 187 | 0.9 | 0.9 | 0.00 | 0.00 | 0.00 | 78 | 1017.2 |
| 20260506084702 | 49 | 152 | 1.7 | 1.7 | 0.00 | 0.00 | 0.00 | 77 | 1017.1 |
| 20260506084158 | 48 | 197 | 0.9 | 0.9 | 0.00 | 0.00 | 0.00 | 78 | 1017.0 |
| 20260506083655 | 49 | 160 | 1.7 | 1.7 | 0.00 | 0.00 | 0.00 | 77 | 1017.1 |
| 20260506083153 | 49 | 184 | 0.9 | 0.9 | 0.00 | 0.00 | 0.00 | 78 | 1017.1 |
| 20260506082651 | 48 | 216 | 1.7 | 1.7 | 0.00 | 0.00 | 0.00 | 79 | 1016.9 |
| 20260506082150 | 49 | 222 | 0.9 | 0.9 | 0.00 | 0.00 | 0.00 | 78 | 1017.0 |
| 20260506081649 | 48 | 189 | 2.6 | 2.6 | 0.00 | 0.00 | 0.00 | 78 | 1017.0 |
| 20260506081146 | 48 | 199 | 0.9 | 0.9 | 0.00 | 0.00 | 0.00 | 80 | 1017.0 |
| 20260506080644 | 48 | 193 | 0.9 | 0.9 | 0.00 | 0.00 | 0.00 | 79 | 1017.1 |
| 20260506080140 | 50 | 231 | 1.7 | 1.7 | 0.00 | 0.00 | 0.00 | 77 | 1017.0 |
| 20260506073125 | 53 | 224 | 5.2 | 7.8 | 0.00 | 0.00 | 0.00 | 65 | 1016.7 |
| 20260506072620 | 52 | 235 | 7.8 | 9.6 | 0.00 | 0.00 | 0.00 | 67 | 1016.4 |
| 20260506072119 | 52 | 210 | 8.7 | 11.3 | 0.00 | 0.00 | 0.00 | 69 | 1016.3 |
| 20260506071617 | 52 | 197 | 5.2 | 7.0 | 0.00 | 0.00 | 0.00 | 70 | 1016.2 |
| 20260506071114 | 51 | 208 | 2.6 | 3.5 | 0.00 | 0.00 | 0.00 | 71 | 1016.4 |
| 20260506070611 | 51 | 189 | 4.3 | 6.1 | 0.00 | 0.00 | 0.00 | 72 | 1016.1 |
| 20260506070108 | 51 | 170 | 4.3 | 7.8 | 0.00 | 0.00 | 0.00 | 73 | 1016.4 |
| 20260506062045 | 51 | 183 | 2.6 | 3.5 | 0.00 | 0.47 | 0.47 | 73 | 1016.5 |
| 20260506061540 | 50 | 143 | 1.7 | 1.7 | 0.00 | 0.47 | 0.47 | 76 | 1016.5 |
| 20260506061038 | 51 | 152 | 1.7 | 2.6 | 0.00 | 0.47 | 0.47 | 77 | 1016.7 |
| 20260506060537 | 50 | 210 | 1.7 | 1.7 | 0.00 | 0.47 | 0.47 | 78 | 1016.4 |
| 20260506051005 | 55 | 146 | 8.7 | 9.6 | 0.00 | 0.30 | 0.30 | 65 | 1015.7 |
| 20260506050503 | 56 | 119 | 5.2 | 6.1 | 0.00 | 0.30 | 0.30 | 64 | 1015.5 |
| 20260506044953 | 55 | 165 | 1.7 | 2.6 | 0.00 | 0.30 | 0.30 | 65 | 1015.0 |
| 20260506044452 | 55 | 154 | 1.7 | 1.7 | 0.00 | 0.30 | 0.30 | 66 | 1015.2 |
| 20260506043948 | 55 | 131 | 1.7 | 1.7 | 0.00 | 0.30 | 0.30 | 64 | 1015.0 |
| 20260506043445 | 55 | 179 | 3.5 | 3.5 | 0.00 | 0.30 | 0.30 | 64 | 1014.9 |
| 20260506042943 | 55 | 213 | 2.6 | 3.5 | 0.00 | 0.30 | 0.30 | 64 | 1014.9 |
| 20260506042442 | 55 | 199 | 0.9 | 1.7 | 0.00 | 0.30 | 0.30 | 64 | 1014.7 |
| 20260506041940 | 54 | 162 | 0.0 | 0.9 | 0.00 | 0.30 | 0.30 | 67 | 1014.4 |
| 20260506041438 | 54 | 164 | 0.9 | 1.7 | 0.00 | 0.30 | 0.30 | 69 | 1014.5 |
| 20260506040935 | 55 | 138 | 2.6 | 2.6 | 0.00 | 0.30 | 0.30 | 68 | 1014.5 |
| 20260506040432 | 56 | 159 | 1.7 | 1.7 | 0.00 | 0.30 | 0.30 | 65 | 1014.5 |
| 20260506035928 | 56 | 179 | 0.9 | 1.7 | 0.00 | 0.30 | 0.30 | 63 | 1014.5 |
| 20260506035426 | 56 | 167 | 0.0 | 0.9 | 0.00 | 0.30 | 0.30 | 63 | 1014.5 |
| 20260506034922 | 56 | 167 | 1.7 | 1.7 | 0.00 | 0.30 | 0.30 | 64 | 1014.5 |
| 20260506034420 | 56 | 161 | 3.5 | 5.2 | 0.00 | 0.30 | 0.30 | 63 | 1014.6 |
| 20260506033916 | 57 | 182 | 0.9 | 1.7 | 0.00 | 0.30 | 0.30 | 63 | 1014.5 |
| 20260506033414 | 57 | 165 | 0.9 | 0.9 | 0.00 | 0.30 | 0.30 | 62 | 1014.2 |
| 20260506032911 | 57 | 190 | 1.7 | 2.6 | 0.00 | 0.30 | 0.30 | 61 | 1014.4 |
| 20260506032407 | 57 | 188 | 1.7 | 1.7 | 0.00 | 0.30 | 0.30 | 61 | 1014.2 |
| 20260506031904 | 57 | 193 | 0.9 | 1.7 | 0.00 | 0.30 | 0.30 | 61 | 1014.0 |
| 20260506031401 | 57 | 175 | 2.6 | 2.6 | 0.00 | 0.30 | 0.30 | 60 | 1013.9 |
| 20260506030859 | 57 | 170 | 3.5 | 3.5 | 0.00 | 0.30 | 0.30 | 60 | 1013.9 |
| 20260506030357 | 57 | 185 | 2.6 | 3.5 | 0.00 | 0.30 | 0.30 | 61 | 1014.1 |
| 20260506025853 | 57 | 181 | 0.0 | 0.9 | 0.00 | 0.30 | 0.30 | 62 | 1013.9 |
| 20260506025350 | 57 | 184 | 0.0 | 0.9 | 0.00 | 0.30 | 0.30 | 62 | 1014.0 |
| 20260506024847 | 57 | 196 | 0.9 | 1.7 | 0.00 | 0.30 | 0.30 | 62 | 1013.9 |
| 20260506024344 | 58 | 157 | 1.7 | 1.7 | 0.00 | 0.30 | 0.30 | 62 | 1013.5 |
| 20260506023840 | 58 | 166 | 1.7 | 1.7 | 0.00 | 0.30 | 0.30 | 60 | 1013.4 |
| 20260506023337 | 59 | 181 | 0.9 | 0.9 | 0.00 | 0.30 | 0.30 | 58 | 1013.7 |
| 20260506022834 | 60 | 189 | 0.9 | 1.7 | 0.00 | 0.30 | 0.30 | 54 | 1013.7 |
| 20260506022332 | 61 | 192 | 0.9 | 0.9 | 0.00 | 0.30 | 0.30 | 53 | 1013.7 |
| 20260506021830 | 61 | 210 | 2.6 | 3.5 | 0.00 | 0.30 | 0.30 | 51 | 1013.7 |
| 20260506021326 | 62 | 178 | 1.7 | 1.7 | 0.00 | 0.30 | 0.30 | 51 | 1013.8 |
| 20260506020823 | 62 | 162 | 1.7 | 1.7 | 0.00 | 0.30 | 0.30 | 51 | 1013.8 |
| 20260506020321 | 62 | 178 | 0.0 | 0.0 | 0.00 | 0.30 | 0.30 | 51 | 1013.5 |
| 20260506015818 | 62 | 200 | 0.9 | 0.9 | 0.00 | 0.30 | 0.30 | 51 | 1013.5 |
| 20260506015316 | 62 | 203 | 1.7 | 1.7 | 0.00 | 0.30 | 0.30 | 51 | 1013.5 |
| 20260506014812 | 62 | 192 | 1.7 | 1.7 | 0.00 | 0.30 | 0.30 | 50 | 1013.5 |
| 20260506014309 | 62 | 161 | 0.9 | 1.7 | 0.00 | 0.30 | 0.30 | 50 | 1013.5 |
| 20260506013806 | 62 | 155 | 2.6 | 3.5 | 0.00 | 0.30 | 0.30 | 47 | 1013.4 |
| 20260506013303 | 61 | 153 | 4.3 | 5.2 | 0.00 | 0.30 | 0.30 | 48 | 1013.5 |
| 20260506012759 | 62 | 149 | 5.2 | 6.1 | 0.00 | 0.30 | 0.30 | 48 | 1013.5 |
| 20260506012256 | 62 | 140 | 3.5 | 5.2 | 0.00 | 0.30 | 0.30 | 49 | 1013.5 |
| 20260506011754 | 62 | 198 | 3.5 | 3.5 | 0.00 | 0.30 | 0.30 | 49 | 1013.7 |
| 20260506011250 | 62 | 210 | 2.6 | 3.5 | 0.00 | 0.30 | 0.30 | 48 | 1013.8 |
| 20260506010748 | 62 | 165 | 3.5 | 5.2 | 0.00 | 0.30 | 0.30 | 48 | 1013.8 |